View from above orbital plane
|
View from above satellite
|
Ground track
|
The orbit data is extracted from the following two-line orbital elements,
1 14208U 83075B 21021.55392362 .00000446 00000-0 29904-4 0 9991
2 14208 97.4210 4.3914 0036926 276.0642 83.6381 15.11305961 45677
Epoch (UTC): | 21 January 2021 13:17:39 |
Eccentricity: | 0.0036926 |
inclination: | 97.4210° |
perigee height: | 507 km |
apogee height: | 558 km |
right ascension of ascending node: | 4.3914° |
argument of perigee: | 276.0642° |
revolutions per day: | 15.11305961 |
mean anomaly at epoch: | 83.6381° |
orbit number at epoch: | 4567 |
The dashed part of the orbit path shows where the satellite is in the earth's shadow,
|
|